This is the latest recevied weather packets stored in our database for station/object KJ7IVE-13. If no packets are shown the sender has not sent any weather packets the latest 1 day(s).
| Time | Temp. | Humidity | Pressure | Rain* | Wind** | Luminosity | Snow |
|---|---|---|---|---|---|---|---|
| 1778031643 | 16.67° C | 10% | 1009.8 hPa | 0 mm | 3.13 m/s, 207° | 37 W/m² | - |
| 1778031342 | 16.67° C | 10% | 1009.5 hPa | 0 mm | 3.58 m/s, 196° | 43 W/m² | - |
| 1778031038 | 16.67° C | 10% | 1009.5 hPa | 0 mm | 3.13 m/s, 220° | 49 W/m² | - |
| 1778030735 | 16.67° C | 10% | 1009.8 hPa | 0 mm | 7.15 m/s, 199° | 57 W/m² | - |
| 1778030432 | 16.67° C | 10% | 1009.4 hPa | 0 mm | 5.36 m/s, 221° | 75 W/m² | - |
| 1778030130 | 16.67° C | 10% | 1009.7 hPa | 0 mm | 4.02 m/s, 217° | 84 W/m² | - |
| 1778029826 | 16.67° C | 10% | 1009.5 hPa | 0 mm | 4.02 m/s, 173° | 91 W/m² | - |
| 1778029525 | 16.67° C | 10% | 1009.5 hPa | 0 mm | 3.13 m/s, 188° | 101 W/m² | - |
| 1778029221 | 16.67° C | 10% | 1009.5 hPa | 0 mm | 3.13 m/s, 205° | 39 W/m² | - |
| 1778028918 | 16.67° C | 10% | 1009.7 hPa | 0 mm | 2.68 m/s, 201° | 109 W/m² | - |
| 1778028614 | 16.67° C | 10% | 1009.4 hPa | 0 mm | 3.58 m/s, 210° | 130 W/m² | - |
| 1778028312 | 16.67° C | 10% | 1009.7 hPa | 0 mm | 3.58 m/s, 169° | 136 W/m² | - |
| 1778028008 | 16.67° C | 10% | 1009.8 hPa | 0 mm | 3.13 m/s, 194° | 155 W/m² | - |
| 1778027704 | 16.67° C | 10% | 1009.7 hPa | 0 mm | 3.58 m/s, 158° | 163 W/m² | - |
| 1778027400 | 16.67° C | 10% | 1009.9 hPa | 0 mm | 2.68 m/s, 180° | 175 W/m² | - |
| 1778027097 | 17.22° C | 10% | 1009.5 hPa | 0 mm | 2.68 m/s, 211° | 166 W/m² | - |
| 1778026792 | 16.67° C | 10% | 1009.7 hPa | 0 mm | 4.02 m/s, 226° | 180 W/m² | - |
| 1778026489 | 16.67° C | 10% | 1009.4 hPa | 0 mm | 2.68 m/s, 180° | 206 W/m² | - |
| 1778026186 | 16.67° C | 10% | 1009.8 hPa | 0 mm | 3.13 m/s, 208° | 241 W/m² | - |
| 1778025884 | 17.22° C | 10% | 1009.7 hPa | 0 mm | 3.58 m/s, 210° | 271 W/m² | - |
| 1778025581 | 17.22° C | 10% | 1009.3 hPa | 0 mm | 3.13 m/s, 157° | 261 W/m² | - |
| 1778025279 | 16.67° C | 10% | 1009.9 hPa | 0 mm | 3.58 m/s, 191° | 285 W/m² | - |
| 1778024975 | 17.22° C | 10% | 1009.7 hPa | 0 mm | 3.13 m/s, 201° | 308 W/m² | - |
| 1778024673 | 16.67° C | 10% | 1009.8 hPa | 0 mm | 2.24 m/s, 160° | 305 W/m² | - |
| 1778024369 | 16.67° C | 10% | 1009.8 hPa | 0 mm | 1.34 m/s, 176° | 291 W/m² | - |
* Rain latest hour (hover to see other rain measurements)
** Current wind speed in m/s (hover to see current wind gust speed)